Погода в Тулузе

Франция     43°35′32″N   1°26′28″E
темп.,
°C
ветер,
м/с
пор.,
м/с
влажн.,
%
обл.,
%
осадки,
мм/ч
давл.,
гПа
погр.,
м
14 мая, пт
пт1423:00+11з129885 8.9 1012112
02:00+10зсз51194100 17.9 1014646
05:00+8з5129626 0.4 1014512
08:00+9з6139449 0.8 1016657
11:00+11зсз7118533 0.8 1017920
14:00+15зсз8105886 1.8 10161887
17:00+16зсз7947100 0.3 10162272
20:00+14з5106060 0.3 1016558
15 мая, сб
сб1523:00+11з3670100 0.0 1017151
02:00+11юз1271100 0.0 101670
05:00+10вюв2377100 0.1 1014112
08:00+10ююв3483100 0.4 1013104
11:00+12ююв2380100 0.0 1013123
14:00+13всв1181100 0.1 101279
17:00+14ссв1277100 0.0 1012214
20:00+13ю1190100 0.3 101322
16 мая, вс
вс1623:00+12ююв2295100 0.6 101363
02:00+12юв2392100 0.6 101186
05:00+12ююз1190100 0.0 101122
08:00+13з2694100 0.2 1012190
11:00+14з3695100 0.9 1013430
14:00+15зсз4790100 1.4 1014477
17:00+13зсз51092100 0.5 1015690
20:00+12з51090100 0.6 1016542
17 мая, пн
пн1723:00+11зюз4987100 0.0 1018431
02:00+11з3986100 0.0 1017419
05:00+10зюз3989100 0.1 1017430
08:00+10зюз3985100 0.2 1018499
11:00+13зсз5973100 0.0 1019894
14:00+16зсз6106095 0.1 10181782
17:00+17зсз8125247 0.1 10181882
20:00+15з711585 0.1 10201137
18 мая, вт
вт1823:00+11з6127039 0.0 1023663
02:00+9зсз5138550 0.0 1024498
05:00+7з411932 0.0 1025330
08:00+8з410830 0.0 1026336
11:00+14зсз565964 0.0 10251312
14:00+17зсз454716 0.0 10241690
17:00+18сз4545100 0.0 10231821
20:00+16з2461100 0.0 1024251